DW7918 Weather Reports


Display with metric or nautical units.
time (UTC)temp
F
wind
direction
speed
MPH
gust
MPH
rain 1hr
in
rain 24hr
in
rain mn
in
humidity
%
barometer
mb
20260903015803 82 0 0.0 0.0 0.00 0.00 0.00 64 1013.9
20260903015604 82 0 0.0 0.0 0.00 0.00 0.00 64 1013.9
20260903015403 82 0 0.0 0.0 0.00 0.00 0.00 64 1013.8
20260903015203 82 0 0.0 0.0 0.00 0.00 0.00 64 1013.8
20260903015003 82 0 0.0 0.0 0.00 0.00 0.00 64 1013.8
20260903014825 82 0 0.0 0.0 0.00 0.00 0.00 64 1013.8
20260903014624 82 0 0.0 0.0 0.00 0.00 0.00 63 1013.8
20260903014403 82 0 0.0 0.0 0.00 0.00 0.00 63 1013.7
20260903014203 83 0 0.0 0.0 0.00 0.00 0.00 63 1013.7
20260903014024 83 0 0.0 0.0 0.00 0.00 0.00 63 1013.7
20260903013803 83 0 0.0 0.0 0.00 0.00 0.00 63 1013.7
20260903013603 83 0 0.0 0.0 0.00 0.00 0.00 63 1013.7
20260903013403 83 0 0.0 0.0 0.00 0.00 0.00 63 1013.7
20260903013203 83 0 0.0 0.0 0.00 0.00 0.00 63 1013.6
20260903013003 83 0 0.0 0.0 0.00 0.00 0.00 63 1013.6
20260903012824 83 0 0.0 0.0 0.00 0.00 0.00 63 1013.7
20260903012603 83 0 0.0 0.0 0.00 0.00 0.00 63 1013.7
20260903012424 83 0 0.0 0.0 0.00 0.00 0.00 63 1013.6
20260903012224 83 0 0.0 0.0 0.00 0.00 0.00 63 1013.5
20260903012003 83 0 0.0 0.0 0.00 0.00 0.00 63 1013.5
20260903011803 83 0 0.0 0.0 0.00 0.00 0.00 63 1013.5
20260903011624 83 0 0.0 0.0 0.00 0.00 0.00 63 1013.5
20260903011403 83 0 0.0 0.0 0.00 0.00 0.00 63 1013.4
20260903011203 83 0 0.0 0.0 0.00 0.00 0.00 63 1013.4
20260903011003 83 0 0.0 0.0 0.00 0.00 0.00 63 1013.4
20260903010803 83 0 0.0 0.0 0.00 0.00 0.00 62 1013.4
20260903010605 83 0 0.0 0.0 0.00 0.00 0.00 62 1013.3
20260903010403 84 0 0.0 0.0 0.00 0.00 0.00 62 1013.3
20260903010203 84 0 0.0 0.0 0.00 0.00 0.00 61 1013.2
20260903010003 84 0 0.0 0.0 0.00 0.00 0.00 61 1013.2
20260903005824 84 0 0.0 0.0 0.00 0.00 0.00 61 1013.3
20260903005624 84 0 0.0 0.0 0.00 0.00 0.00 61 1013.2
20260903005424 84 0 0.0 0.0 0.00 0.00 0.00 61 1013.3
20260903005203 84 0 0.0 0.0 0.00 0.00 0.00 61 1013.3
20260903005003 84 0 0.0 0.0 0.00 0.00 0.00 61 1013.2
20260903004803 84 0 0.0 0.0 0.00 0.00 0.00 61 1013.2
20260903004603 84 0 0.0 0.0 0.00 0.00 0.00 61 1013.2
20260903004403 84 0 0.0 0.0 0.00 0.00 0.00 60 1013.2
20260903004204 85 0 0.0 0.0 0.00 0.00 0.00 60 1013.2
20260903004024 85 300 0.0 3.0 0.00 0.00 0.00 60 1013.1
20260903003803 85 299 1.0 4.0 0.00 0.00 0.00 60 1013.1
20260903003624 85 300 1.0 4.0 0.00 0.00 0.00 60 1013.1
20260903003403 85 300 1.0 4.0 0.00 0.00 0.00 60 1013.1
20260903003203 85 300 1.0 4.0 0.00 0.00 0.00 60 1013.1
20260903003003 85 299 0.0 4.0 0.00 0.00 0.00 60 1013.1
20260903002803 85 304 0.0 3.0 0.00 0.00 0.00 60 1013.1
20260903002603 85 0 0.0 0.0 0.00 0.00 0.00 60 1013.1
20260903002403 85 0 0.0 0.0 0.00 0.00 0.00 60 1013.1
20260903002203 85 0 0.0 0.0 0.00 0.00 0.00 60 1013.1
20260903002003 85 0 0.0 0.0 0.00 0.00 0.00 60 1013.1
20260903001803 85 0 0.0 0.0 0.00 0.00 0.00 60 1013.1
20260903001603 85 0 0.0 0.0 0.00 0.00 0.00 60 1013.0
20260903001403 85 0 0.0 0.0 0.00 0.00 0.00 60 1013.0
20260903001224 85 0 0.0 0.0 0.00 0.00 0.00 59 1013.0
20260903001003 85 304 0.0 2.0 0.00 0.00 0.00 60 1013.0
20260903000803 85 304 1.0 3.0 0.00 0.00 0.00 59 1013.0
20260903000603 85 304 1.0 3.0 0.00 0.00 0.00 59 1013.0
20260903000404 85 304 1.0 3.0 0.00 0.00 0.00 59 1013.0
20260903000204 86 304 2.0 4.0 0.00 0.00 0.00 59 1013.0
20260903000003 86 304 2.0 4.0 0.00 0.00 0.00 59 1013.0
20260902235803 86 306 2.0 4.0 0.00 0.00 0.00 58 1013.0
20260902235603 86 310 2.0 4.0 0.00 0.00 0.00 58 1013.0
20260902235424 86 310 2.0 4.0 0.00 0.00 0.00 58 1013.0
20260902235203 86 310 2.0 4.0 0.00 0.00 0.00 58 1013.0
20260902235003 86 310 2.0 4.0 0.00 0.00 0.00 58 1013.0
20260902234824 86 307 2.0 4.0 0.00 0.00 0.00 58 1013.0
20260902234624 87 305 2.0 4.0 0.00 0.00 0.00 57 1013.0
20260902234403 87 304 2.0 4.0 0.00 0.00 0.00 57 1013.0
20260902234203 87 305 2.0 4.0 0.00 0.00 0.00 57 1013.0
20260902234003 87 306 3.0 6.0 0.00 0.00 0.00 56 1013.0
20260902233803 87 308 3.0 6.0 0.00 0.00 0.00 56 1013.0
20260902233603 88 306 3.0 6.0 0.00 0.00 0.00 56 1012.9
20260902233403 88 305 4.0 7.0 0.00 0.00 0.00 56 1013.0
20260902233203 88 304 4.0 7.0 0.00 0.00 0.00 55 1013.1
20260902233024 88 302 4.0 7.0 0.00 0.00 0.00 55 1013.0
20260902232803 88 300 4.0 7.0 0.00 0.00 0.00 55 1013.0
20260902232603 88 298 4.0 7.0 0.00 0.00 0.00 54 1013.1
20260902232404 89 299 3.0 6.0 0.00 0.00 0.00 54 1013.1
20260902232203 89 301 4.0 10.0 0.00 0.00 0.00 54 1013.1
20260902232004 89 302 4.0 10.0 0.00 0.00 0.00 54 1013.1
20260902231824 89 304 4.0 10.0 0.00 0.00 0.00 53 1013.1
20260902231603 90 307 4.0 10.0 0.00 0.00 0.00 53 1013.1
20260902231404 90 306 4.0 10.0 0.00 0.00 0.00 52 1013.1
20260902231203 90 306 4.0 10.0 0.00 0.00 0.00 52 1013.1
20260902231003 90 308 4.0 10.0 0.00 0.00 0.00 52 1013.1
20260902230824 91 307 4.0 10.0 0.00 0.00 0.00 51 1013.0
20260902230624 91 305 4.0 10.0 0.00 0.00 0.00 51 1013.0
20260902230403 91 304 3.0 10.0 0.00 0.00 0.00 50 1013.0
20260902230203 92 303 4.0 7.0 0.00 0.00 0.00 51 1013.0
20260902230003 92 303 4.0 7.0 0.00 0.00 0.00 50 1013.1
20260902225803 92 302 4.0 7.0 0.00 0.00 0.00 50 1013.0
20260902225603 92 304 4.0 8.0 0.00 0.00 0.00 50 1013.0
20260902225424 92 304 4.0 8.0 0.00 0.00 0.00 50 1013.0
20260902225203 92 305 4.0 8.0 0.00 0.00 0.00 49 1013.0
20260902225024 92 305 4.0 8.0 0.00 0.00 0.00 49 1013.0
20260902224824 92 305 4.0 8.0 0.00 0.00 0.00 48 1013.0
20260902224604 93 304 4.0 7.0 0.00 0.00 0.00 48 1013.0
20260902224403 93 304 5.0 7.0 0.00 0.00 0.00 47 1013.1
20260902224203 93 304 5.0 9.0 0.00 0.00 0.00 47 1013.1
20260902224003 93 303 5.0 9.0 0.00 0.00 0.00 46 1013.0
20260902223804 93 302 5.0 9.0 0.00 0.00 0.00 46 1013.0
20260902223603 93 301 5.0 9.0 0.00 0.00 0.00 46 1013.0
20260902223403 93 303 5.0 9.0 0.00 0.00 0.00 46 1013.0
20260902223203 93 304 5.0 8.0 0.00 0.00 0.00 47 1013.0
20260902223025 93 305 5.0 8.0 0.00 0.00 0.00 46 1013.0
20260902222803 93 308 5.0 8.0 0.00 0.00 0.00 46 1013.0
20260902222624 93 309 5.0 9.0 0.00 0.00 0.00 45 1013.0
20260902222404 93 309 5.0 9.0 0.00 0.00 0.00 45 1013.0
20260902222203 93 309 5.0 10.0 0.00 0.00 0.00 46 1013.1
20260902222003 93 309 5.0 10.0 0.00 0.00 0.00 46 1013.1
20260902221803 94 309 5.0 10.0 0.00 0.00 0.00 45 1013.1
20260902221603 93 308 5.0 10.0 0.00 0.00 0.00 45 1013.1
20260902221403 94 308 5.0 10.0 0.00 0.00 0.00 46 1013.1
20260902221203 94 306 5.0 9.0 0.00 0.00 0.00 46 1013.1
20260902221024 94 305 5.0 9.0 0.00 0.00 0.00 45 1013.2
20260902220803 94 305 5.0 9.0 0.00 0.00 0.00 44 1013.1
20260902220603 94 305 5.0 9.0 0.00 0.00 0.00 44 1013.1
20260902220403 94 305 6.0 9.0 0.00 0.00 0.00 43 1013.1
20260902220203 94 307 6.0 9.0 0.00 0.00 0.00 44 1013.1
20260902220003 94 307 6.0 11.0 0.00 0.00 0.00 45 1013.1
20260902215803 94 306 6.0 11.0 0.00 0.00 0.00 44 1013.1
20260902215603 94 305 5.0 11.0 0.00 0.00 0.00 42 1013.1
20260902215403 94 306 5.0 11.0 0.00 0.00 0.00 42 1013.2
20260902215203 94 303 5.0 11.0 0.00 0.00 0.00 41 1013.1
20260902215003 94 301 5.0 8.0 0.00 0.00 0.00 43 1013.1
20260902214824 94 302 5.0 8.0 0.00 0.00 0.00 44 1013.2
20260902214624 94 302 5.0 11.0 0.00 0.00 0.00 44 1013.1
20260902214403 95 300 5.0 11.0 0.00 0.00 0.00 45 1013.1
20260902214203 94 303 5.0 11.0 0.00 0.00 0.00 43 1013.2
20260902214003 94 306 5.0 11.0 0.00 0.00 0.00 43 1013.2
20260902213824 94 307 5.0 11.0 0.00 0.00 0.00 43 1013.2
20260902213603 94 312 5.0 9.0 0.00 0.00 0.00 42 1013.3
20260902213403 94 316 6.0 9.0 0.00 0.00 0.00 44 1013.3
20260902213203 94 313 6.0 10.0 0.00 0.00 0.00 41 1013.3
20260902213024 94 312 7.0 10.0 0.00 0.00 0.00 41 1013.3
20260902212803 94 311 6.0 10.0 0.00 0.00 0.00 42 1013.4
20260902212603 94 310 6.0 10.0 0.00 0.00 0.00 40 1013.3
20260902212403 94 305 6.0 10.0 0.00 0.00 0.00 41 1013.4
20260902212203 94 306 6.0 10.0 0.00 0.00 0.00 42 1013.4
20260902212003 94 305 6.0 10.0 0.00 0.00 0.00 43 1013.4
20260902211824 94 307 7.0 11.0 0.00 0.00 0.00 43 1013.4
20260902211603 94 308 7.0 12.0 0.00 0.00 0.00 42 1013.4
20260902211403 94 310 7.0 12.0 0.00 0.00 0.00 42 1013.4
20260902211204 94 311 6.0 12.0 0.00 0.00 0.00 43 1013.4
20260902211003 94 312 6.0 12.0 0.00 0.00 0.00 43 1013.3
20260902210803 94 306 6.0 12.0 0.00 0.00 0.00 40 1013.4
20260902210603 94 304 6.0 11.0 0.00 0.00 0.00 41 1013.5
20260902210424 95 304 6.0 11.0 0.00 0.00 0.00 41 1013.5
20260902210203 95 304 6.0 10.0 0.00 0.00 0.00 42 1013.5
20260902210024 95 306 6.0 10.0 0.00 0.00 0.00 40 1013.5
20260902205803 95 305 6.0 10.0 0.00 0.00 0.00 42 1013.5
20260902205624 94 306 6.0 10.0 0.00 0.00 0.00 42 1013.5
20260902205403 94 307 6.0 10.0 0.00 0.00 0.00 44 1013.6
20260902205203 94 309 5.0 10.0 0.00 0.00 0.00 43 1013.6
20260902205003 94 306 5.0 10.0 0.00 0.00 0.00 43 1013.6
20260902204824 94 307 5.0 10.0 0.00 0.01 0.00 42 1013.6
20260902204603 94 310 5.0 10.0 0.00 0.01 0.00 44 1013.6
20260902204403 94 311 5.0 10.0 0.00 0.01 0.00 43 1013.7
20260902204203 94 308 5.0 10.0 0.00 0.01 0.00 42 1013.8
20260902204003 94 310 5.0 9.0 0.00 0.02 0.00 42 1013.7
20260902203803 94 313 4.0 8.0 0.00 0.03 0.00 45 1013.7
20260902203603 94 312 5.0 10.0 0.00 0.04 0.00 43 1013.8
20260902203403 94 311 5.0 11.0 0.00 0.04 0.00 44 1013.8
20260902203224 94 311 5.0 11.0 0.00 0.05 0.00 45 1013.8
20260902203003 94 310 5.0 11.0 0.00 0.05 0.00 45 1013.8
20260902202803 94 310 5.0 11.0 0.00 0.05 0.00 42 1013.9
20260902202603 94 310 5.0 11.0 0.00 0.05 0.00 43 1014.0
20260902202403 94 310 5.0 10.0 0.00 0.05 0.00 44 1014.0
20260902202203 94 310 5.0 10.0 0.00 0.05 0.00 42 1014.0
20260902202003 94 309 5.0 10.0 0.00 0.05 0.00 42 1014.1
20260902201824 94 309 5.0 10.0 0.00 0.05 0.00 42 1014.1
20260902201603 94 308 5.0 9.0 0.00 0.05 0.00 45 1014.1
20260902201424 94 307 4.0 9.0 0.00 0.05 0.00 44 1014.0
20260902201203 94 309 4.0 9.0 0.00 0.05 0.00 43 1014.1
20260902201003 94 309 3.0 9.0 0.00 0.05 0.00 42 1014.1
20260902200803 94 309 3.0 8.0 0.00 0.05 0.00 45 1014.2
20260902200603 94 309 2.0 9.0 0.00 0.05 0.00 44 1014.2
20260902200403 94 311 2.0 9.0 0.00 0.05 0.00 43 1014.2
20260902200203 93 311 2.0 9.0 0.00 0.05 0.00 43 1014.3
20260902200003 93 321 2.0 9.0 0.00 0.05 0.00 42 1014.3
20260902195803 93 332 2.0 9.0 0.00 0.05 0.00 43 1014.4
20260902195603 93 335 3.0 8.0 0.00 0.05 0.00 45 1014.5
20260902195403 93 333 3.0 8.0 0.00 0.05 0.00 43 1014.6
20260902195203 93 331 4.0 8.0 0.00 0.05 0.00 44 1014.5
20260902195003 93 324 4.0 10.0 0.00 0.05 0.00 44 1014.6
20260902194803 93 321 4.0 10.0 0.00 0.05 0.00 43 1014.6
20260902194603 93 319 3.0 10.0 0.00 0.05 0.00 43 1014.6
20260902194403 93 316 3.0 10.0 0.00 0.05 0.00 45 1014.7
20260902194203 93 318 3.0 10.0 0.00 0.05 0.00 44 1014.7
20260902194003 93 324 3.0 10.0 0.00 0.06 0.00 43 1014.7
20260902193803 93 325 3.0 10.0 0.00 0.06 0.00 44 1014.7
20260902193603 93 330 3.0 10.0 0.00 0.06 0.00 46 1014.7
20260902193403 93 334 3.0 10.0 0.00 0.06 0.00 44 1014.8
20260902193225 93 343 2.0 10.0 0.00 0.06 0.00 45 1014.7
20260902193003 93 352 2.0 8.0 0.00 0.06 0.00 46 1014.8
20260902192824 92 358 2.0 6.0 0.00 0.06 0.00 45 1014.8
20260902192603 92 1 3.0 6.0 0.00 0.06 0.00 47 1014.8
20260902192403 92 4 3.0 6.0 0.00 0.06 0.00 49 1014.8
20260902192203 92 3 4.0 7.0 0.00 0.06 0.00 48 1014.9
20260902192024 92 3 4.0 7.0 0.00 0.06 0.00 47 1015.0
20260902191803 92 5 4.0 7.0 0.00 0.06 0.00 49 1015.0
20260902191603 92 5 4.0 7.0 0.00 0.06 0.00 47 1015.0
20260902191403 92 3 4.0 7.0 0.00 0.06 0.00 48 1014.9
20260902191203 92 8 4.0 8.0 0.00 0.06 0.00 49 1015.0
20260902191003 92 9 4.0 8.0 0.00 0.06 0.00 49 1015.0
20260902190803 91 5 4.0 8.0 0.00 0.06 0.00 49 1015.0
20260902190603 91 4 4.0 9.0 0.00 0.06 0.00 48 1015.0
20260902190403 92 4 4.0 9.0 0.00 0.06 0.00 48 1015.0
20260902190203 92 3 4.0 9.0 0.00 0.06 0.00 49 1015.0
20260902190003 92 355 4.0 9.0 0.00 0.06 0.00 45 1015.1
20260902185803 92 353 4.0 9.0 0.00 0.06 0.00 47 1015.1
20260902185624 92 352 3.0 8.0 0.00 0.06 0.00 46 1015.1
20260902185403 92 348 3.0 8.0 0.00 0.06 0.00 47 1015.1
20260902185204 92 340 3.0 8.0 0.00 0.06 0.00 46 1015.1
20260902185003 92 343 4.0 13.0 0.00 0.06 0.00 45 1015.2
20260902184824 92 344 4.0 13.0 0.00 0.06 0.00 46 1015.1
20260902184603 92 338 4.0 13.0 0.00 0.06 0.00 46 1015.1
20260902184424 92 333 5.0 13.0 0.00 0.06 0.00 46 1015.0
20260902184203 92 331 4.0 13.0 0.00 0.06 0.00 42 1015.0
20260902184003 93 326 4.0 8.0 0.00 0.06 0.00 44 1015.0
20260902183803 93 322 4.0 8.0 0.00 0.06 0.00 44 1015.0
20260902183603 93 319 3.0 8.0 0.00 0.06 0.00 45 1015.0
20260902183403 93 320 3.0 7.0 0.00 0.06 0.00 45 1015.0
20260902183203 92 319 3.0 7.0 0.00 0.06 0.00 46 1015.0
20260902183003 92 326 3.0 7.0 0.00 0.06 0.00 45 1015.0
20260902182803 92 340 3.0 6.0 0.00 0.06 0.00 48 1015.0
20260902182624 92 345 3.0 6.0 0.00 0.06 0.00 48 1015.0
20260902182403 91 346 3.0 7.0 0.00 0.06 0.00 45 1015.0
20260902182224 91 340 3.0 8.0 0.00 0.06 0.00 46 1015.1
20260902182004 91 337 3.0 8.0 0.00 0.06 0.00 47 1015.1
20260902181803 91 331 3.0 8.0 0.00 0.06 0.00 46 1015.1
20260902181603 91 322 3.0 8.0 0.00 0.06 0.00 45 1015.1
20260902181403 91 318 3.0 8.0 0.00 0.06 0.00 45 1015.1
20260902181224 92 322 2.0 7.0 0.00 0.06 0.00 45 1015.1
20260902181003 92 318 2.0 7.0 0.00 0.06 0.00 45 1015.1
20260902180803 92 314 2.0 7.0 0.00 0.06 0.00 48 1015.1
20260902180603 91 317 2.0 7.0 0.00 0.06 0.00 47 1015.1
20260902180403 91 312 3.0 7.0 0.00 0.06 0.00 47 1015.1
20260902180203 91 310 3.0 7.0 0.00 0.06 0.00 45 1015.1
20260902180024 91 311 3.0 7.0 0.00 0.06 0.00 47 1015.1
20260902175824 91 314 3.0 7.0 0.00 0.06 0.00 49 1015.1
20260902175624 91 315 4.0 7.0 0.00 0.06 0.00 47 1015.1
20260902175403 91 324 3.0 7.0 0.00 0.06 0.00 45 1015.2
20260902175203 91 327 4.0 7.0 0.00 0.06 0.00 47 1015.2
20260902175003 91 329 3.0 7.0 0.00 0.06 0.00 47 1015.2
20260902174803 91 321 3.0 7.0 0.00 0.06 0.00 46 1015.3
20260902174603 91 321 4.0 7.0 0.00 0.06 0.00 47 1015.3
20260902174403 91 316 4.0 8.0 0.00 0.06 0.00 48 1015.3
20260902174203 91 314 5.0 8.0 0.00 0.06 0.00 48 1015.3
20260902174003 91 311 5.0 8.0 0.00 0.06 0.00 47 1015.3
20260902173803 91 310 5.0 8.0 0.00 0.06 0.00 48 1015.3
20260902173603 91 307 5.0 8.0 0.00 0.06 0.00 47 1015.4
20260902173424 91 306 5.0 8.0 0.00 0.06 0.00 47 1015.4
20260902173203 91 306 4.0 8.0 0.00 0.06 0.00 49 1015.3
20260902173024 91 307 4.0 8.0 0.00 0.06 0.00 47 1015.4
20260902172803 91 310 4.0 7.0 0.00 0.06 0.00 50 1015.4
20260902172603 91 311 3.0 7.0 0.00 0.06 0.00 47 1015.4
20260902172403 91 314 2.0 7.0 0.00 0.06 0.00 51 1015.4
20260902172203 91 313 2.0 7.0 0.00 0.06 0.00 51 1015.4
20260902172004 91 312 1.0 7.0 0.00 0.06 0.00 50 1015.4
20260902171824 91 306 1.0 7.0 0.00 0.06 0.00 51 1015.4
20260902171603 90 306 1.0 6.0 0.00 0.06 0.00 50 1015.5
20260902171403 90 305 1.0 6.0 0.00 0.06 0.00 52 1015.5
20260902171224 90 305 2.0 7.0 0.00 0.06 0.00 52 1015.5
20260902171003 90 306 2.0 7.0 0.00 0.06 0.00 50 1015.5
20260902170824 90 305 2.0 7.0 0.00 0.06 0.00 52 1015.5
20260902170603 90 306 3.0 7.0 0.00 0.06 0.00 50 1015.5
20260902170403 90 309 3.0 7.0 0.00 0.06 0.00 49 1015.5
20260902170203 89 308 4.0 6.0 0.00 0.06 0.00 51 1015.6
20260902170003 89 308 3.0 6.0 0.00 0.06 0.00 51 1015.6
20260902165803 89 311 3.0 6.0 0.00 0.06 0.00 50 1015.6
20260902165603 89 313 3.0 6.0 0.00 0.06 0.00 53 1015.7
20260902165403 89 316 3.0 6.0 0.00 0.06 0.00 52 1015.7
20260902165224 89 318 3.0 5.0 0.00 0.06 0.00 51 1015.7
20260902165003 89 318 4.0 7.0 0.00 0.06 0.00 51 1015.7
20260902164803 89 319 3.0 7.0 0.00 0.06 0.00 52 1015.7
20260902164603 89 321 3.0 7.0 0.00 0.06 0.00 54 1015.8
20260902164403 89 321 3.0 7.0 0.00 0.06 0.00 53 1015.8
20260902164203 89 326 3.0 7.0 0.00 0.06 0.00 52 1015.8
20260902164003 88 337 2.0 5.0 0.00 0.06 0.00 55 1015.8
20260902163803 88 339 2.0 5.0 0.00 0.06 0.00 56 1015.8
20260902163603 88 344 2.0 5.0 0.00 0.06 0.00 53 1015.8
20260902163403 88 344 2.0 6.0 0.00 0.06 0.00 54 1015.9
20260902163203 88 343 3.0 6.0 0.00 0.06 0.00 56 1015.9
20260902163003 88 346 3.0 6.0 0.00 0.06 0.00 57 1015.9
20260902162803 88 353 3.0 6.0 0.00 0.06 0.00 53 1015.9
20260902162603 88 355 3.0 6.0 0.00 0.06 0.00 54 1015.9
20260902162403 87 359 3.0 5.0 0.00 0.06 0.00 56 1015.9
20260902162203 87 6 3.0 5.0 0.00 0.06 0.00 56 1015.9
20260902162004 87 8 3.0 5.0 0.00 0.06 0.00 57 1015.9
20260902161824 87 8 3.0 6.0 0.00 0.06 0.00 56 1015.9
20260902161603 87 11 4.0 6.0 0.00 0.06 0.00 56 1015.9
20260902161403 87 13 4.0 6.0 0.00 0.06 0.00 55 1016.0
20260902161224 87 15 4.0 6.0 0.00 0.06 0.00 58 1016.0
20260902161003 87 7 3.0 6.0 0.00 0.06 0.00 58 1016.0
20260902160803 87 356 3.0 8.0 0.00 0.06 0.00 57 1016.0
20260902160603 87 347 3.0 8.0 0.00 0.06 0.00 56 1016.1
20260902160403 87 337 3.0 8.0 0.00 0.06 0.00 59 1016.1
20260902160224 86 328 3.0 8.0 0.00 0.06 0.00 58 1016.1
20260902160004 86 330 3.0 8.0 0.00 0.06 0.00 57 1016.1
20260902155803 86 329 3.0 6.0 0.00 0.06 0.00 58 1016.1
20260902155603 86 332 3.0 5.0 0.00 0.06 0.00 61 1016.1
20260902155403 86 335 3.0 5.0 0.00 0.06 0.00 59 1016.1
20260902155203 86 335 3.0 5.0 0.00 0.06 0.00 60 1016.1
20260902155003 86 329 3.0 7.0 0.00 0.06 0.00 59 1016.1
20260902154803 85 331 3.0 7.0 0.00 0.06 0.00 59 1016.1
20260902154603 85 332 3.0 7.0 0.00 0.06 0.00 59 1016.1
20260902154403 85 331 4.0 7.0 0.00 0.06 0.00 59 1016.2
20260902154203 85 340 4.0 7.0 0.00 0.06 0.00 59 1016.1
20260902154003 85 351 3.0 6.0 0.00 0.06 0.00 60 1016.1
20260902153803 85 355 3.0 7.0 0.00 0.06 0.00 60 1016.2
20260902153603 85 1 3.0 7.0 0.00 0.06 0.00 60 1016.2
20260902153403 85 4 3.0 7.0 0.00 0.06 0.00 61 1016.2
20260902153203 85 360 3.0 7.0 0.00 0.06 0.00 60 1016.1
20260902153003 85 358 3.0 7.0 0.00 0.06 0.00 60 1016.1
20260902152803 84 2 2.0 5.0 0.00 0.06 0.00 62 1016.1
20260902152603 84 10 2.0 5.0 0.00 0.06 0.00 61 1016.1
20260902152424 84 13 2.0 5.0 0.00 0.06 0.00 61 1016.1
20260902152203 84 1 3.0 7.0 0.00 0.06 0.00 61 1016.0
20260902152003 85 345 3.0 7.0 0.00 0.06 0.00 63 1016.0
20260902151803 85 328 4.0 7.0 0.00 0.06 0.00 62 1016.0
20260902151603 85 314 4.0 7.0 0.00 0.06 0.00 61 1015.9
20260902151403 85 305 4.0 7.0 0.00 0.06 0.00 59 1015.8
20260902151203 85 302 4.0 7.0 0.00 0.06 0.00 59 1015.6
20260902151003 85 301 4.0 7.0 0.00 0.06 0.00 60 1015.6
20260902150803 85 301 4.0 7.0 0.00 0.06 0.00 62 1015.6
20260902150624 85 301 3.0 7.0 0.00 0.06 0.00 60 1015.5
20260902150403 85 304 3.0 7.0 0.00 0.06 0.00 62 1015.5
20260902150203 85 304 3.0 6.0 0.00 0.06 0.00 62 1015.6
20260902150003 84 303 3.0 6.0 0.00 0.06 0.00 61 1015.7
20260902145803 84 309 3.0 6.0 0.00 0.06 0.00 61 1015.7
20260902145603 84 312 3.0 6.0 0.00 0.06 0.00 62 1015.7
20260902145403 84 308 3.0 6.0 0.00 0.06 0.00 62 1015.7
20260902145203 84 309 3.0 6.0 0.00 0.06 0.00 62 1015.7
20260902145003 84 315 3.0 6.0 0.00 0.06 0.00 62 1015.6
20260902144803 83 314 3.0 6.0 0.00 0.06 0.00 63 1015.7
20260902144624 83 311 3.0 6.0 0.00 0.06 0.00 62 1015.7
20260902144403 83 313 3.0 6.0 0.00 0.06 0.00 63 1015.7
20260902144203 83 319 3.0 6.0 0.00 0.06 0.00 62 1015.7
20260902144003 83 319 3.0 6.0 0.00 0.06 0.00 63 1015.7
20260902143803 83 318 3.0 6.0 0.00 0.06 0.00 62 1015.6
20260902143624 83 321 3.0 6.0 0.00 0.06 0.00 63 1015.6
20260902143403 82 324 3.0 6.0 0.00 0.06 0.00 62 1015.7
20260902143203 82 314 3.0 6.0 0.00 0.06 0.00 62 1015.7
20260902143003 82 312 3.0 6.0 0.00 0.06 0.00 63 1015.6
20260902142803 82 314 2.0 5.0 0.00 0.06 0.00 62 1015.7
20260902142624 82 319 2.0 5.0 0.00 0.06 0.00 63 1015.7
20260902142403 82 331 3.0 5.0 0.00 0.06 0.00 63 1015.7
20260902142203 82 348 3.0 5.0 0.00 0.06 0.00 64 1015.6
20260902142003 82 360 3.0 5.0 0.00 0.06 0.00 63 1015.7
20260902141803 82 8 3.0 6.0 0.00 0.06 0.00 63 1015.6
20260902141624 82 12 3.0 6.0 0.00 0.06 0.00 63 1015.6
20260902141403 82 14 2.0 6.0 0.00 0.06 0.00 64 1015.7
20260902141203 82 18 2.0 6.0 0.00 0.06 0.00 63 1015.7
20260902141003 82 15 2.0 6.0 0.00 0.06 0.00 64 1015.6
20260902140803 82 7 2.0 5.0 0.00 0.06 0.00 64 1015.6
20260902140624 82 355 2.0 5.0 0.00 0.06 0.00 65 1015.7
20260902140424 81 341 2.0 6.0 0.00 0.06 0.00 63 1015.7
20260902140203 81 317 3.0 6.0 0.00 0.06 0.00 63 1015.6
20260902140024 81 310 3.0 6.0 0.00 0.06 0.00 63 1015.6
20260902135803 81 306 4.0 6.0 0.00 0.06 0.00 63 1015.5
20260902135603 81 306 4.0 6.0 0.00 0.06 0.00 64 1015.5
20260902135403 81 305 3.0 6.0 0.00 0.06 0.00 63 1015.4
20260902135203 81 304 3.0 6.0 0.00 0.06 0.00 64 1015.4
20260902135003 81 302 3.0 6.0 0.00 0.06 0.00 64 1015.4
20260902134803 81 305 3.0 6.0 0.00 0.06 0.00 64 1015.4
20260902134603 81 306 4.0 6.0 0.00 0.06 0.00 64 1015.4
20260902134424 80 306 4.0 6.0 0.00 0.06 0.00 64 1015.4
20260902134203 80 307 3.0 6.0 0.00 0.06 0.00 64 1015.4
20260902134003 80 312 3.0 6.0 0.00 0.06 0.00 64 1015.5
20260902133803 80 311 3.0 6.0 0.00 0.06 0.00 65 1015.5
20260902133624 80 310 3.0 6.0 0.00 0.06 0.00 65 1015.4
20260902133403 80 309 3.0 5.0 0.00 0.06 0.00 65 1015.4
20260902133203 80 306 3.0 4.0 0.00 0.06 0.00 65 1015.4
20260902133003 80 303 3.0 5.0 0.00 0.06 0.00 65 1015.5
20260902132803 80 303 2.0 5.0 0.00 0.06 0.00 66 1015.5
20260902132603 79 303 2.0 5.0 0.00 0.06 0.00 65 1015.4
20260902132403 79 300 2.0 5.0 0.00 0.06 0.00 65 1015.4
20260902132203 79 303 2.0 5.0 0.00 0.06 0.00 66 1015.5
20260902132003 79 304 2.0 4.0 0.00 0.06 0.00 66 1015.5
20260902131803 79 302 3.0 7.0 0.00 0.06 0.00 66 1015.5
20260902131603 79 301 3.0 7.0 0.00 0.06 0.00 66 1015.5
20260902131403 79 302 3.0 7.0 0.00 0.06 0.00 67 1015.5
20260902131203 79 301 2.0 7.0 0.00 0.06 0.00 67 1015.5
20260902131003 79 299 2.0 7.0 0.00 0.06 0.00 66 1015.5
20260902130803 78 300 1.0 5.0 0.00 0.06 0.00 67 1015.5
20260902130603 78 298 1.0 5.0 0.00 0.06 0.00 67 1015.5
20260902130403 78 300 0.0 4.0 0.00 0.06 0.00 67 1015.5
20260902130203 78 0 0.0 0.0 0.00 0.06 0.00 68 1015.6
20260902130003 78 0 0.0 0.0 0.00 0.06 0.00 68 1015.6
20260902125803 78 0 0.0 0.0 0.00 0.06 0.00 67 1015.6
20260902125603 77 0 0.0 0.0 0.00 0.06 0.00 68 1015.6
20260902125403 77 0 0.0 0.0 0.00 0.06 0.00 68 1015.6
20260902125224 77 0 0.0 0.0 0.00 0.06 0.00 69 1015.6
20260902125003 77 0 0.0 0.0 0.00 0.06 0.00 68 1015.6
20260902124803 77 0 0.0 0.0 0.00 0.06 0.00 69 1015.5
20260902124603 77 0 0.0 0.0 0.00 0.06 0.00 69 1015.6
20260902124424 76 0 0.0 0.0 0.00 0.06 0.00 70 1015.6
20260902124203 76 0 0.0 0.0 0.00 0.06 0.00 70 1015.7
20260902124024 76 0 0.0 0.0 0.00 0.06 0.00 70 1015.7
20260902123803 76 0 0.0 0.0 0.00 0.06 0.00 71 1015.7
20260902123603 76 0 0.0 0.0 0.00 0.06 0.00 71 1015.7
20260902123403 76 0 0.0 0.0 0.00 0.06 0.00 71 1015.7
20260902123203 76 0 0.0 0.0 0.00 0.06 0.00 71 1015.8
20260902123024 75 0 0.0 0.0 0.00 0.06 0.00 71 1015.7
20260902122803 75 0 0.0 0.0 0.00 0.06 0.00 72 1015.8
20260902122624 75 0 0.0 0.0 0.00 0.06 0.00 72 1015.8
20260902122403 75 0 0.0 0.0 0.00 0.06 0.00 72 1015.8
20260902122203 75 0 0.0 0.0 0.00 0.06 0.00 72 1015.8
20260902122003 75 0 0.0 0.0 0.00 0.06 0.00 72 1015.8
20260902121803 75 0 0.0 0.0 0.00 0.06 0.00 72 1015.8
20260902121603 75 0 0.0 0.0 0.00 0.06 0.00 72 1015.8
20260902121403 75 0 0.0 0.0 0.00 0.06 0.00 73 1015.8
20260902121203 75 0 0.0 0.0 0.00 0.06 0.00 73 1015.8
20260902121003 75 0 0.0 0.0 0.00 0.06 0.00 73 1015.8
20260902120803 74 0 0.0 0.0 0.00 0.06 0.00 73 1015.8
20260902120603 74 0 0.0 0.0 0.00 0.06 0.00 73 1015.8
20260902120403 74 0 0.0 0.0 0.00 0.06 0.00 73 1015.7
20260902120203 74 0 0.0 0.0 0.00 0.06 0.00 73 1015.7
20260902120003 74 0 0.0 0.0 0.00 0.06 0.00 74 1015.7
20260902115803 74 0 0.0 0.0 0.00 0.06 0.00 74 1015.7
20260902115603 74 0 0.0 0.0 0.00 0.06 0.00 75 1015.7
20260902115403 74 0 0.0 0.0 0.00 0.06 0.00 75 1015.7
20260902115203 74 0 0.0 0.0 0.00 0.06 0.00 75 1015.7
20260902115003 74 0 0.0 0.0 0.00 0.06 0.00 75 1015.7
20260902114803 74 0 0.0 0.0 0.00 0.06 0.00 75 1015.6
20260902114603 73 0 0.0 0.0 0.00 0.06 0.00 75 1015.5
20260902114403 73 0 0.0 0.0 0.00 0.06 0.00 75 1015.6
20260902114224 73 0 0.0 0.0 0.00 0.06 0.00 75 1015.6
20260902114003 73 0 0.0 0.0 0.00 0.06 0.00 76 1015.6
20260902113803 73 0 0.0 0.0 0.00 0.06 0.00 75 1015.5
20260902113603 73 0 0.0 0.0 0.00 0.06 0.00 75 1015.5
20260902113424 72 0 0.0 0.0 0.00 0.06 0.00 75 1015.6
20260902113203 72 0 0.0 0.0 0.00 0.06 0.00 75 1015.5
20260902113003 72 0 0.0 0.0 0.00 0.06 0.00 75 1015.5
20260902112803 73 0 0.0 0.0 0.00 0.06 0.00 75 1015.6
20260902112603 73 0 0.0 0.0 0.00 0.06 0.00 76 1015.5
20260902112403 73 0 0.0 0.0 0.00 0.06 0.00 76 1015.5
20260902112203 73 0 0.0 0.0 0.00 0.06 0.00 76 1015.5
20260902112003 73 0 0.0 0.0 0.00 0.06 0.00 77 1015.5
20260902111803 73 0 0.0 0.0 0.00 0.06 0.00 77 1015.5
20260902111603 73 0 0.0 0.0 0.00 0.06 0.00 77 1015.5
20260902111403 72 0 0.0 0.0 0.00 0.06 0.00 76 1015.5
20260902111224 72 0 0.0 0.0 0.00 0.06 0.00 76 1015.5
20260902111024 72 0 0.0 0.0 0.00 0.06 0.00 76 1015.6
20260902110824 72 0 0.0 0.0 0.00 0.06 0.00 75 1015.6
20260902110603 72 0 0.0 0.0 0.00 0.06 0.00 75 1015.5
20260902110403 72 0 0.0 0.0 0.00 0.06 0.00 75 1015.5
20260902110203 72 0 0.0 0.0 0.00 0.06 0.00 75 1015.5
20260902110005 72 0 0.0 0.0 0.00 0.06 0.00 74 1015.6
20260902105803 72 0 0.0 0.0 0.00 0.06 0.00 74 1015.5
20260902105603 72 0 0.0 0.0 0.00 0.06 0.00 74 1015.5
20260902105424 72 0 0.0 0.0 0.00 0.06 0.00 74 1015.6
20260902105203 72 0 0.0 0.0 0.00 0.06 0.00 74 1015.6
20260902105024 72 0 0.0 0.0 0.00 0.06 0.00 75 1015.5
20260902104803 72 0 0.0 0.0 0.00 0.06 0.00 75 1015.5
20260902104603 72 0 0.0 0.0 0.00 0.06 0.00 75 1015.6
20260902104403 72 0 0.0 0.0 0.00 0.06 0.00 75 1015.6
20260902104203 72 0 0.0 0.0 0.00 0.06 0.00 74 1015.6
20260902104003 72 0 0.0 0.0 0.00 0.06 0.00 73 1015.7
20260902103803 72 0 0.0 0.0 0.00 0.06 0.00 73 1015.6
20260902103603 72 0 0.0 0.0 0.00 0.06 0.00 72 1015.6
20260902103403 72 0 0.0 0.0 0.00 0.06 0.00 72 1015.6
20260902103203 72 0 0.0 0.0 0.00 0.06 0.00 72 1015.6
20260902103024 72 0 0.0 0.0 0.00 0.06 0.00 72 1015.6
20260902102803 72 0 0.0 0.0 0.00 0.06 0.00 73 1015.6
20260902102603 72 0 0.0 0.0 0.00 0.06 0.00 73 1015.6
20260902102424 72 0 0.0 0.0 0.00 0.06 0.00 73 1015.6
20260902102203 72 0 0.0 0.0 0.00 0.06 0.00 72 1015.6
20260902102003 72 0 0.0 0.0 0.00 0.06 0.00 72 1015.6
20260902101824 72 0 0.0 0.0 0.00 0.06 0.00 72 1015.6
20260902101603 72 0 0.0 0.0 0.00 0.06 0.00 72 1015.6
20260902101403 72 0 0.0 0.0 0.00 0.06 0.00 72 1015.5
20260902101203 73 0 0.0 0.0 0.00 0.06 0.00 72 1015.6
20260902101003 73 0 0.0 0.0 0.00 0.06 0.00 72 1015.5
20260902100803 73 0 0.0 0.0 0.00 0.06 0.00 72 1015.5
20260902100603 73 0 0.0 0.0 0.00 0.06 0.00 72 1015.6
20260902100403 73 0 0.0 0.0 0.00 0.06 0.00 72 1015.5
20260902100203 73 0 0.0 0.0 0.00 0.06 0.00 72 1015.5
20260902100003 73 0 0.0 0.0 0.00 0.06 0.00 72 1015.5
20260902095803 73 0 0.0 0.0 0.00 0.06 0.00 72 1015.6
20260902095603 73 0 0.0 0.0 0.00 0.06 0.00 72 1015.6
20260902095424 73 0 0.0 0.0 0.00 0.06 0.00 72 1015.5
20260902095203 73 0 0.0 0.0 0.00 0.06 0.00 72 1015.5
20260902095003 73 0 0.0 0.0 0.00 0.06 0.00 72 1015.6
20260902094803 74 0 0.0 0.0 0.00 0.06 0.00 72 1015.5
20260902094624 74 0 0.0 0.0 0.00 0.06 0.00 71 1015.5
20260902094424 74 0 0.0 0.0 0.00 0.06 0.00 72 1015.5
20260902094203 74 0 0.0 0.0 0.00 0.06 0.00 72 1015.5
20260902094003 74 0 0.0 0.0 0.00 0.06 0.00 73 1015.5
20260902093803 74 0 0.0 0.0 0.00 0.06 0.00 73 1015.4
20260902093624 74 0 0.0 0.0 0.00 0.06 0.00 73 1015.4
20260902093403 74 0 0.0 0.0 0.00 0.06 0.00 74 1015.5
20260902093203 74 0 0.0 0.0 0.00 0.06 0.00 74 1015.5
20260902093024 74 0 0.0 0.0 0.00 0.06 0.00 74 1015.4
20260902092803 74 0 0.0 0.0 0.00 0.06 0.00 74 1015.4
20260902092603 74 0 0.0 0.0 0.00 0.06 0.00 74 1015.4
20260902092403 74 0 0.0 0.0 0.00 0.06 0.00 74 1015.4
20260902092203 74 0 0.0 0.0 0.00 0.06 0.00 74 1015.4
20260902092003 74 0 0.0 0.0 0.00 0.06 0.00 74 1015.4
20260902091803 74 0 0.0 0.0 0.00 0.06 0.00 74 1015.4
20260902091603 75 0 0.0 0.0 0.00 0.06 0.00 74 1015.4
20260902091403 75 0 0.0 0.0 0.00 0.06 0.00 74 1015.4
20260902091224 75 0 0.0 0.0 0.00 0.06 0.00 74 1015.5
20260902091003 75 0 0.0 0.0 0.00 0.06 0.00 74 1015.3
20260902090803 75 0 0.0 0.0 0.00 0.06 0.00 73 1015.3
20260902090624 75 0 0.0 0.0 0.00 0.06 0.00 73 1015.3
20260902090403 75 0 0.0 0.0 0.00 0.06 0.00 73 1015.3
20260902090203 75 0 0.0 0.0 0.00 0.06 0.00 74 1015.3
20260902090003 75 0 0.0 0.0 0.00 0.06 0.00 74 1015.3
20260902085824 75 0 0.0 0.0 0.00 0.06 0.00 74 1015.3
20260902085603 75 0 0.0 0.0 0.00 0.06 0.00 74 1015.2
20260902085424 75 0 0.0 0.0 0.00 0.06 0.00 74 1015.3
20260902085203 75 0 0.0 0.0 0.00 0.06 0.00 74 1015.2
20260902085024 75 0 0.0 0.0 0.00 0.06 0.00 75 1015.2
20260902084824 75 0 0.0 0.0 0.00 0.06 0.00 74 1015.2
20260902084603 75 0 0.0 0.0 0.00 0.06 0.00 75 1015.2
20260902084403 75 0 0.0 0.0 0.00 0.06 0.00 74 1015.2
20260902084203 75 0 0.0 0.0 0.00 0.06 0.00 74 1015.2
20260902084003 75 0 0.0 0.0 0.00 0.06 0.00 73 1015.2
20260902083803 75 0 0.0 0.0 0.00 0.06 0.00 73 1015.1
20260902083624 75 0 0.0 0.0 0.00 0.06 0.00 73 1015.1
20260902083403 75 0 0.0 0.0 0.00 0.06 0.00 73 1015.1
20260902083224 75 0 0.0 0.0 0.00 0.06 0.00 73 1015.1
20260902083003 75 0 0.0 0.0 0.00 0.06 0.00 73 1015.1
20260902082803 75 0 0.0 0.0 0.00 0.06 0.00 73 1015.1
20260902082604 75 0 0.0 0.0 0.00 0.06 0.00 73 1015.1
20260902082403 75 0 0.0 0.0 0.00 0.06 0.00 73 1015.1
20260902082224 75 0 0.0 0.0 0.00 0.06 0.00 73 1015.1
20260902082003 75 0 0.0 0.0 0.00 0.06 0.00 73 1015.1
20260902081803 75 0 0.0 0.0 0.00 0.06 0.00 73 1015.0
20260902081603 75 0 0.0 0.0 0.00 0.06 0.00 73 1015.1
20260902081424 76 0 0.0 0.0 0.00 0.06 0.00 74 1015.1
20260902081203 76 0 0.0 0.0 0.00 0.06 0.00 75 1015.1
20260902081024 76 0 0.0 0.0 0.00 0.06 0.00 75 1015.1
20260902080824 76 0 0.0 0.0 0.00 0.06 0.00 75 1015.1
20260902080624 75 0 0.0 0.0 0.00 0.06 0.00 75 1015.1
20260902080403 75 0 0.0 0.0 0.00 0.06 0.00 75 1015.1
20260902080203 75 0 0.0 0.0 0.00 0.06 0.00 75 1015.2
20260902080024 75 0 0.0 0.0 0.00 0.06 0.00 75 1015.2
20260902075803 75 0 0.0 0.0 0.00 0.06 0.00 75 1015.2
20260902075603 75 0 0.0 0.0 0.00 0.06 0.00 75 1015.2
20260902075403 75 0 0.0 0.0 0.00 0.06 0.00 75 1015.2
20260902075203 75 0 0.0 0.0 0.00 0.06 0.00 75 1015.3
20260902075024 75 0 0.0 0.0 0.00 0.06 0.00 74 1015.3
20260902074803 75 0 0.0 0.0 0.00 0.06 0.00 75 1015.3
20260902074624 75 0 0.0 0.0 0.00 0.06 0.00 75 1015.3
20260902074424 75 0 0.0 0.0 0.00 0.06 0.00 74 1015.3
20260902074203 75 0 0.0 0.0 0.00 0.06 0.00 74 1015.2
20260902074003 75 0 0.0 0.0 0.00 0.06 0.00 73 1015.2
20260902073803 75 0 0.0 0.0 0.00 0.06 0.00 73 1015.2
20260902073603 75 0 0.0 0.0 0.00 0.06 0.00 73 1015.2
20260902073403 76 0 0.0 0.0 0.00 0.06 0.00 73 1015.1
20260902073203 76 0 0.0 0.0 0.00 0.06 0.00 73 1015.1
20260902073003 76 0 0.0 0.0 0.00 0.06 0.00 73 1015.1
20260902072803 76 0 0.0 0.0 0.00 0.06 0.00 73 1015.1
20260902072603 76 0 0.0 0.0 0.00 0.06 0.00 73 1015.2
20260902072403 76 0 0.0 0.0 0.00 0.06 0.00 74 1015.2
20260902072203 76 0 0.0 0.0 0.00 0.06 0.00 76 1015.1
20260902072003 76 0 0.0 0.0 0.00 0.06 0.00 77 1015.2
20260902071803 76 0 0.0 0.0 0.00 0.06 0.00 77 1015.2
20260902071603 76 0 0.0 0.0 0.00 0.06 0.00 77 1015.1
20260902071403 76 0 0.0 0.0 0.00 0.06 0.00 77 1015.1
20260902071224 76 0 0.0 0.0 0.00 0.06 0.00 77 1015.1
20260902071003 76 0 0.0 0.0 0.00 0.06 0.00 78 1015.1
20260902070803 76 0 0.0 0.0 0.00 0.06 0.00 78 1015.1
20260902070603 76 0 0.0 0.0 0.00 0.06 0.00 78 1015.1
20260902070403 76 0 0.0 0.0 0.00 0.06 0.00 79 1015.1
20260902070203 76 0 0.0 0.0 0.00 0.06 0.00 79 1015.1
20260902070004 76 0 0.0 0.0 0.00 0.06 0.00 79 1015.0
20260902065803 76 0 0.0 0.0 0.00 0.06 0.00 79 1015.0
20260902065603 76 0 0.0 0.0 0.00 0.06 0.00 79 1015.0
20260902065403 76 0 0.0 0.0 0.00 0.06 0.00 79 1015.0
20260902065203 75 0 0.0 0.0 0.00 0.06 0.00 79 1015.1
20260902065003 75 0 0.0 0.0 0.00 0.06 0.00 79 1015.1
20260902064803 75 0 0.0 0.0 0.00 0.06 0.00 78 1015.0
20260902064603 75 0 0.0 0.0 0.00 0.06 0.00 78 1015.0
20260902064403 75 0 0.0 0.0 0.00 0.06 0.00 77 1015.0
20260902064203 75 0 0.0 0.0 0.00 0.06 0.00 77 1015.0
20260902064003 75 0 0.0 0.0 0.00 0.06 0.00 77 1015.0
20260902063824 75 0 0.0 0.0 0.00 0.06 0.00 77 1015.0
20260902063603 75 0 0.0 0.0 0.00 0.06 0.00 77 1015.0
20260902063403 75 0 0.0 0.0 0.00 0.06 0.00 77 1015.0
20260902063203 75 0 0.0 0.0 0.00 0.06 0.00 77 1015.0
20260902063003 75 0 0.0 0.0 0.00 0.06 0.00 77 1015.0
20260902062803 75 0 0.0 0.0 0.00 0.06 0.00 77 1014.9
20260902062603 76 0 0.0 0.0 0.00 0.06 0.00 77 1014.9
20260902062403 76 0 0.0 0.0 0.00 0.06 0.00 77 1015.0
20260902062203 76 0 0.0 0.0 0.00 0.06 0.00 78 1015.0
20260902062004 76 0 0.0 0.0 0.00 0.06 0.00 78 1015.0
20260902061803 76 0 0.0 0.0 0.00 0.06 0.00 78 1015.0
20260902061603 76 0 0.0 0.0 0.00 0.06 0.00 78 1015.0
20260902061403 76 0 0.0 0.0 0.00 0.06 0.00 78 1015.0
20260902061203 75 0 0.0 0.0 0.00 0.06 0.00 77 1015.1
20260902061003 75 0 0.0 0.0 0.00 0.06 0.00 75 1015.1
20260902060803 75 0 0.0 0.0 0.00 0.06 0.00 73 1015.0
20260902060624 75 0 0.0 0.0 0.00 0.06 0.00 73 1015.0
20260902060403 75 0 0.0 0.0 0.00 0.06 0.00 73 1015.1
20260902060203 75 0 0.0 0.0 0.00 0.06 0.00 73 1015.1
20260902060024 75 0 0.0 0.0 0.00 0.06 0.00 73 1015.1
20260902055803 75 0 0.0 0.0 0.00 0.06 0.00 73 1015.1
20260902055603 75 0 0.0 0.0 0.00 0.06 0.00 73 1015.1
20260902055403 75 0 0.0 0.0 0.00 0.06 0.00 72 1015.1
20260902055203 75 0 0.0 0.0 0.00 0.06 0.00 72 1015.1
20260902055024 75 0 0.0 0.0 0.00 0.06 0.00 72 1015.2
20260902054824 75 0 0.0 0.0 0.00 0.06 0.00 72 1015.2
20260902054603 75 0 0.0 0.0 0.00 0.06 0.00 71 1015.2
20260902054403 75 0 0.0 0.0 0.00 0.06 0.00 71 1015.2
20260902054224 75 0 0.0 0.0 0.00 0.06 0.00 70 1015.1
20260902054003 76 0 0.0 0.0 0.00 0.06 0.00 70 1015.1
20260902053803 76 0 0.0 0.0 0.00 0.06 0.00 70 1015.1
20260902053603 76 0 0.0 0.0 0.00 0.06 0.00 70 1015.1
20260902053424 76 0 0.0 0.0 0.00 0.06 0.00 70 1015.1
20260902053224 76 0 0.0 0.0 0.00 0.06 0.00 70 1015.2
20260902053003 76 0 0.0 0.0 0.00 0.06 0.00 70 1015.2
20260902052803 76 0 0.0 0.0 0.00 0.06 0.00 70 1015.2
20260902052603 77 0 0.0 0.0 0.00 0.06 0.00 71 1015.2
20260902052403 77 0 0.0 0.0 0.00 0.06 0.00 71 1015.2
20260902052203 77 0 0.0 0.0 0.00 0.06 0.00 71 1015.3
20260902052003 77 0 0.0 0.0 0.00 0.06 0.00 71 1015.3
20260902051803 77 0 0.0 0.0 0.00 0.06 0.00 71 1015.3
20260902051603 77 0 0.0 0.0 0.00 0.06 0.00 71 1015.3
20260902051403 77 0 0.0 0.0 0.00 0.06 0.00 70 1015.4
20260902051203 78 0 0.0 0.0 0.00 0.06 0.00 71 1015.4
20260902051003 78 0 0.0 0.0 0.00 0.06 0.00 71 1015.4
20260902050803 78 0 0.0 0.0 0.00 0.06 0.00 70 1015.4
20260902050603 78 0 0.0 0.0 0.00 0.06 0.00 70 1015.4
20260902050424 78 0 0.0 0.0 0.00 0.06 0.00 71 1015.3
20260902050203 78 0 0.0 0.0 0.00 0.06 0.00 71 1015.3
20260902050024 78 0 0.0 0.0 0.00 0.06 0.00 71 1015.3
20260902045803 78 0 0.0 0.0 0.00 0.06 0.00 71 1015.3
20260902045603 78 0 0.0 0.0 0.00 0.06 0.00 71 1015.4
20260902045403 78 0 0.0 0.0 0.00 0.06 0.00 71 1015.3
20260902045203 78 0 0.0 0.0 0.00 0.06 0.00 71 1015.4
20260902045003 78 0 0.0 0.0 0.00 0.06 0.00 71 1015.4
20260902044824 78 0 0.0 0.0 0.00 0.06 0.00 72 1015.4
20260902044603 78 0 0.0 0.0 0.00 0.06 0.00 72 1015.4
20260902044403 78 0 0.0 0.0 0.00 0.06 0.00 74 1015.4
20260902044224 78 0 0.0 0.0 0.00 0.06 0.00 75 1015.4
20260902044003 78 0 0.0 0.0 0.00 0.06 0.00 77 1015.4
20260902043803 78 0 0.0 0.0 0.00 0.06 0.00 77 1015.4
20260902043603 78 0 0.0 0.0 0.00 0.06 0.00 77 1015.3
20260902043403 78 0 0.0 0.0 0.00 0.06 0.00 77 1015.3
20260902043203 78 0 0.0 0.0 0.00 0.06 0.00 77 1015.3
20260902043024 78 0 0.0 0.0 0.00 0.06 0.00 77 1015.3
20260902042803 78 0 0.0 0.0 0.00 0.06 0.00 77 1015.2
20260902042624 78 0 0.0 0.0 0.00 0.06 0.00 78 1015.2
20260902042424 78 0 0.0 0.0 0.00 0.06 0.00 78 1015.1
20260902042203 77 0 0.0 0.0 0.00 0.06 0.00 78 1015.1
20260902042003 77 0 0.0 0.0 0.00 0.06 0.00 78 1015.1
20260902041803 77 0 0.0 0.0 0.00 0.06 0.00 78 1015.1
20260902041603 77 0 0.0 0.0 0.00 0.06 0.00 77 1015.1
20260902041403 76 0 0.0 0.0 0.00 0.06 0.00 77 1015.0
20260902041203 76 0 0.0 0.0 0.00 0.06 0.00 77 1015.0
20260902041003 76 0 0.0 0.0 0.00 0.06 0.00 77 1015.1
20260902040803 76 0 0.0 0.0 0.00 0.06 0.00 77 1015.0
20260902040603 76 0 0.0 0.0 0.00 0.06 0.00 76 1015.0
20260902040403 76 0 0.0 0.0 0.00 0.06 0.00 75 1015.0
20260902040224 76 0 0.0 0.0 0.00 0.06 0.00 75 1015.0
20260902040003 76 0 0.0 0.0 0.00 0.06 0.00 74 1015.0
20260902035803 75 0 0.0 0.0 0.00 0.06 0.06 73 1015.0
20260902035603 76 0 0.0 0.0 0.00 0.06 0.06 73 1015.0
20260902035403 76 0 0.0 0.0 0.00 0.06 0.06 73 1014.9
20260902035203 76 0 0.0 0.0 0.00 0.06 0.06 73 1015.0
20260902035003 76 0 0.0 0.0 0.00 0.06 0.06 73 1015.0
20260902034803 76 0 0.0 0.0 0.00 0.06 0.06 73 1015.0
20260902034603 76 0 0.0 0.0 0.00 0.06 0.06 72 1015.0
20260902034403 76 0 0.0 0.0 0.00 0.06 0.06 72 1015.0
20260902034203 76 0 0.0 0.0 0.00 0.06 0.06 71 1015.0
20260902034003 76 0 0.0 0.0 0.00 0.06 0.06 71 1015.0
20260902033803 76 0 0.0 0.0 0.00 0.06 0.06 71 1015.0
20260902033603 76 0 0.0 0.0 0.00 0.06 0.06 71 1015.0
20260902033403 76 0 0.0 0.0 0.00 0.06 0.06 71 1014.9
20260902033203 76 0 0.0 0.0 0.00 0.06 0.06 71 1015.0
20260902033003 76 0 0.0 0.0 0.00 0.06 0.06 71 1014.9
20260902032824 76 0 0.0 0.0 0.00 0.06 0.06 71 1014.9
20260902032603 77 0 0.0 0.0 0.00 0.06 0.06 71 1014.9
20260902032424 77 0 0.0 0.0 0.00 0.06 0.06 71 1014.9
20260902032224 77 0 0.0 0.0 0.00 0.06 0.06 71 1014.9
20260902032003 77 0 0.0 0.0 0.00 0.06 0.06 71 1015.0
20260902031824 77 0 0.0 0.0 0.00 0.06 0.06 71 1014.9
20260902031603 77 0 0.0 0.0 0.00 0.06 0.06 71 1014.9
20260902031403 77 0 0.0 0.0 0.00 0.06 0.06 71 1015.0
20260902031203 77 0 0.0 0.0 0.00 0.06 0.06 71 1015.0
20260902031003 77 0 0.0 0.0 0.00 0.06 0.06 71 1015.0
20260902030803 77 0 0.0 0.0 0.00 0.06 0.06 71 1015.0
20260902030624 77 0 0.0 0.0 0.00 0.06 0.06 71 1014.9
20260902030403 77 0 0.0 0.0 0.00 0.06 0.06 70 1015.0
20260902030224 77 0 0.0 0.0 0.00 0.06 0.06 70 1015.0
20260902030003 78 0 0.0 0.0 0.00 0.06 0.06 70 1015.0
20260902025803 78 0 0.0 0.0 0.00 0.06 0.06 70 1015.0
20260902025624 78 0 0.0 0.0 0.00 0.06 0.06 70 1015.0
20260902025403 78 0 0.0 0.0 0.00 0.06 0.06 70 1015.0
20260902025224 78 0 0.0 0.0 0.00 0.06 0.06 70 1015.0
20260902025003 78 0 0.0 0.0 0.00 0.06 0.06 70 1015.0
20260902024803 78 0 0.0 0.0 0.00 0.06 0.06 70 1015.1
20260902024624 78 0 0.0 0.0 0.00 0.06 0.06 71 1015.0
20260902024403 78 0 0.0 0.0 0.00 0.06 0.06 71 1015.1
20260902024203 78 0 0.0 0.0 0.00 0.06 0.06 71 1015.1
20260902024003 78 0 0.0 0.0 0.00 0.06 0.06 71 1015.1
20260902023803 78 0 0.0 0.0 0.00 0.06 0.06 72 1015.0
20260902023603 78 0 0.0 0.0 0.00 0.06 0.06 72 1015.0
20260902023403 78 0 0.0 0.0 0.00 0.06 0.06 72 1015.0
20260902023203 78 0 0.0 0.0 0.00 0.06 0.06 72 1015.0
20260902023003 78 0 0.0 0.0 0.00 0.06 0.06 72 1015.0
20260902022803 78 0 0.0 0.0 0.00 0.06 0.06 72 1015.0
20260902022603 78 0 0.0 0.0 0.00 0.06 0.06 72 1014.9
20260902022403 78 0 0.0 0.0 0.00 0.06 0.06 72 1015.0
20260902022203 78 0 0.0 0.0 0.00 0.06 0.06 72 1014.9
20260902022003 78 0 0.0 0.0 0.00 0.06 0.06 72 1014.9
20260902021824 78 0 0.0 0.0 0.00 0.06 0.06 72 1014.8
20260902021603 78 0 0.0 0.0 0.00 0.06 0.06 72 1014.8
20260902021403 78 0 0.0 0.0 0.00 0.06 0.06 72 1014.8
20260902021224 78 0 0.0 0.0 0.00 0.06 0.06 72 1014.8
20260902021024 78 0 0.0 0.0 0.00 0.06 0.06 72 1014.8
20260902020803 78 0 0.0 0.0 0.00 0.06 0.06 71 1014.8
20260902020603 78 0 0.0 0.0 0.00 0.06 0.06 71 1014.8
20260902020403 78 0 0.0 0.0 0.00 0.06 0.06 72 1014.7
20260902020203 78 0 0.0 0.0 0.00 0.06 0.06 71 1014.7
20260902020003 78 0 0.0 0.0 0.00 0.06 0.06 72 1014.7